Location: Unspecified
(44.4377°N, 88.0525°W)
Time: 22:52:01
(UTC-05:00)

Okean 3 - Pass Details

Date: 27 May 2018
Orbit: 576 x 602 km, 82.5° (Epoch: 19 October)

Event Time Altitude Azimuth Distance (km) Brightness Sun altitude
Rises 21:47:16 0° 242° (WSW) 2,838 7.1 -12.1°
Reaches altitude 10° 21:51:15 10° 279° (W) 1,937 6.9 -12.6°
Maximum altitude 21:52:23 11° 294° (WNW) 1,877 7.1 -12.7°
Drops below altitude 10° 21:53:32 10° 310° (NW) 1,937 7.6 -12.8°
Sets 21:57:32 0° 348° (NNW) 2,838 8.1 -13.3°
